Regional Weather Roundup
Issued by NWS

Home | Current Version | Previous Version | Graphics & Text | Print | Product List | Glossary On
Versions: 1 2 3 4 5 6 7 8 9 10 11 12 13 14 15 16 17 18 19 20 21 22 23 24 25 26 27 28 29 30 31 32 33 34 35 36 37 38 39 40 41 42 43 44 45 46 47 48 49 50
000
ASUS43 KTOP 031808
RWRKS

WEATHER ROUNDUP FOR KANSAS
NATIONAL WEATHER SERVICE GOODLAND KS
100 PM CDT MON AUG 03 2020

NOTE:  "FAIR" INDICATES FEW OR NO CLOUDS BELOW 12,000 FEET WITH NO
SIGNIFICANT WEATHER AND/OR OBSTRUCTIONS TO VISIBILITY.

KSZ001>006-013>018-027>032-041>047-031900-
NORTHWEST KANSAS

CITY           SKY/WX    TMP DP  RH WIND       PRES   REMARKS
GOODLAND       MOSUNNY   73  59  61 S16G23    30.19F
6HR MIN TEMP:  57; 6HR MAX TEMP:  73; 6HR PCP:  0.11;

HAYS           MOSUNNY   75  55  49 CALM      30.18F
HILL CITY      MOSUNNY   79  54  41 E7        30.18F
6HR MIN TEMP:  54; 6HR MAX TEMP:  79;

RUSSELL        MOSUNNY   76  55  48 VRB5      30.16F
6HR MIN TEMP:  58; 6HR MAX TEMP:  76;

$$

KSZ061>065-074>080-084>089-031900-
SOUTHWEST KANSAS

CITY           SKY/WX    TMP DP  RH WIND       PRES   REMARKS
DODGE CITY     MOSUNNY   77  60  55 E7        30.18F
6HR MIN TEMP:  62; 6HR MAX TEMP:  77;

ELKHART        SUNNY     77  61  57 SE16      30.18F
GARDEN CITY    MOSUNNY   70  60  70 VRB7      30.19F
6HR MIN TEMP:  60; 6HR MAX TEMP:  70; 6HR PCP:  0.09;

GREAT BEND     PTSUNNY   74  58  57 VRB3      30.17F
LIBERAL        LGT RAIN  66  62  87 SE8       30.18R
PRATT          MOSUNNY   77  51  40 N3        30.17F
6HR MIN TEMP:  58; 6HR MAX TEMP:  78;

$$

KSZ066>073-081>083-090>101-031900-
SOUTHEAST KANSAS

CITY           SKY/WX    TMP DP  RH WIND       PRES   REMARKS
CHANUTE        SUNNY     81  54  39 N12G22    30.12F
6HR MIN TEMP:  64; 6HR MAX TEMP:  81;

COFFEYVILLE    SUNNY     81  54  39 N13       30.10S
6HR MIN TEMP:  65; 6HR MAX TEMP:  81;

HUTCHINSON     MOSUNNY   77  55  46 NE8       30.16F
6HR MIN TEMP:  61; 6HR MAX TEMP:  79;

MEDICINE LODGE   N/A     78  57  48 VRB3      30.14F
NEWTON         SUNNY     76  55  48 N10       30.16F
PARSONS        MOSUNNY   80  56  43 N7G17     30.12F
6HR MIN TEMP:  62; 6HR MAX TEMP:  81;

WICHITA INTL   MOSUNNY   81  54  39 N9        30.15S
6HR MIN TEMP:  64; 6HR MAX TEMP:  81;

WICHITA JABRA  SUNNY     79  54  41 NE9       30.15F
6HR MIN TEMP:  59; 6HR MAX TEMP:  80;

WICHITA MCCONL MOSUNNY   79  52  38 N8        30.15S
WINFIELD       SUNNY     81  60  48 NE8       30.15S
6HR MIN TEMP:  63; 6HR MAX TEMP:  81;

$$

KSZ007>012-019>026-033>040-048>060-102>105-031900-
NORTHEAST KANSAS

CITY           SKY/WX    TMP DP  RH WIND       PRES   REMARKS
CONCORDIA      MOSUNNY   79  57  46 MISG      30.17F
6HR MIN TEMP:  61; 6HR MAX TEMP:  79;

EMPORIA        MOSUNNY   76  56  49 N8G18     30.15F
6HR MIN TEMP:  59; 6HR MAX TEMP:  78;

LAWRENCE       MOSUNNY   75  59  57 N10       30.14F
6HR MIN TEMP:  60; 6HR MAX TEMP:  76;

MANHATTAN      SUNNY     78  57  48 NE10      30.15F
6HR MIN TEMP:  57; 6HR MAX TEMP:  78;

MARYSVILLE     PTSUNNY   72  59  64 NE6       30.17F
OLATHE IND     MOSUNNY   75  55  49 N17       30.15S
6HR MIN TEMP:  58; 6HR MAX TEMP:  75;

OLATHE EXE     MOSUNNY   74  56  53 N15G21    30.13F
6HR MIN TEMP:  61; 6HR MAX TEMP:  75;

SALINA         SUNNY     78  55  44 N8        30.16F
6HR MIN TEMP:  59; 6HR MAX TEMP:  78;

TOPEKA BILLARD MOSUNNY   75  57  53 N8        30.15F
6HR MIN TEMP:  60; 6HR MAX TEMP:  76;

TOPEKA FORBES    N/A     75  58  55 NE8G23    30.15F
6HR MIN TEMP:  61; 6HR MAX TEMP:  76;

$$




USA.gov is the U.S. government's official web portal to all federal, state and local government web resources and services.